West Plains, MO

5:13 PM CDT on July 26, 2017 (GMT -0500)
West Plains Municipal

Weather History for KUNO - September, 2013

Change the Weather History Date:

Tuesday, September 24, 2013

  Actual Average Record
Temperature  
Mean Temperature 66 °F 65 °F  
Max Temperature 80 °F 77 °F 90 °F (1961)
Min Temperature 52 °F 53 °F 34 °F (1989)
Degree Days  
Heating Degree Days 0 3  
Month to date heating degree days 16 18  
Since 1 July heating degree days 20 19  
Cooling Degree Days 1 3  
Month to date cooling degree days 178 143  
Year to date cooling degree days 1020 1315  
Growing Degree Days 16 (Base 50)    
Moisture  
Dew Point 56 °F    
Average Humidity 68    
Maximum Humidity 93    
Minimum Humidity 42    
Precipitation  
Precipitation 0.00 in 0.12 in 2.20 in (2000)
Month to date precipitation 1.41 3.24  
Year to date precipitation 43.64 33.31  
Sea Level Pressure  
Sea Level Pressure 29.86 in    
Wind  
Wind Speed 3 mph (West)    
Max Wind Speed 12 mph    
Max Gust Speed 14 mph    
Visibility 10 miles    
Events      
T = Trace of Precipitation, MM = Missing Value Source: NWS Daily Summary

Daily Weather History Graph

Daily Weather History Graph

Search for Another Location

Airport or City:

Trip Planner

Search our weather history database for the weather conditions in past years. The results will help you decide how hot, cold, wet, or windy it might be!

Date:

Astronomy

Sep. 24, 2013 Rise Set
Actual Time 6:57 AM CDT 7:01 PM CDT
Civil Twilight 6:31 AM CDT 7:26 PM CDT
Nautical Twilight 6:01 AM CDT 7:57 PM CDT
Astronomical Twilight 5:30 AM CDT 8:27 PM CDT
Moon 10:26 PM CDT (9/24) 12:04 PM CDT (9/24)
Length of Visible Light 12h 55m
Length of Day
12h 03m
Waning Gibbous, 73% of the Moon is Illuminated
Sep 24
Waning Gibbous
Sep 26
Last Quarter
Oct 4
New
Oct 11
First Quarter
Oct 18
Full

Hourly Weather History & Observations

Time (CDT) Temp. Heat Index Dew Point Humidity Pressure Visibility Wind Dir Wind Speed Gust Speed Precip Events Conditions
12:53 AM 54.0 °F - 52.0 °F 93% 29.93 in 10.0 mi Calm Calm - N/A   Clear
1:53 AM 55.0 °F - 52.0 °F 89% 29.93 in 10.0 mi Calm Calm - N/A   Clear
2:53 AM 54.0 °F - 52.0 °F 93% 29.92 in 10.0 mi Calm Calm - N/A   Clear
3:53 AM 53.1 °F - 52.0 °F 96% 29.90 in 10.0 mi Calm Calm - N/A   Clear
4:53 AM 55.0 °F - 53.1 °F 93% 29.90 in 10.0 mi Calm Calm - N/A   Clear
5:53 AM 55.9 °F - 54.0 °F 93% 29.90 in 10.0 mi Calm Calm - N/A   Clear
6:53 AM 54.0 °F - 52.0 °F 93% 29.89 in 9.0 mi Calm Calm - N/A   Clear
7:53 AM 57.9 °F - 55.9 °F 93% 29.88 in 9.0 mi Calm Calm - N/A   Partly Cloudy
8:53 AM 64.0 °F - 59.0 °F 84% 29.89 in 10.0 mi Calm Calm - N/A   Clear
9:53 AM 68.0 °F - 60.1 °F 76% 29.88 in 10.0 mi SSE 3.5 mph - N/A   Clear
10:53 AM 73.0 °F - 59.0 °F 61% 29.88 in 10.0 mi Variable 5.8 mph - N/A   Clear
11:53 AM 77.0 °F - 57.0 °F 50% 29.87 in 10.0 mi Variable 5.8 mph - N/A   Clear
12:53 PM 78.1 °F - 57.9 °F 50% 29.86 in 10.0 mi Calm Calm - N/A   Clear
1:53 PM 80.1 °F 80.4 °F 57.0 °F 45% 29.83 in 10.0 mi WSW 6.9 mph - N/A   Clear
2:53 PM 79.0 °F - 57.0 °F 47% 29.82 in 10.0 mi Variable 5.8 mph - N/A   Partly Cloudy
3:53 PM 79.0 °F - 57.0 °F 47% 29.81 in 10.0 mi South 4.6 mph - N/A   Mostly Cloudy
4:53 PM 79.0 °F - 55.9 °F 45% 29.80 in 10.0 mi SSW 5.8 mph - N/A   Mostly Cloudy
5:53 PM 78.1 °F - 53.1 °F 42% 29.80 in 10.0 mi WSW 5.8 mph - N/A   Clear
6:53 PM 72.0 °F - 55.9 °F 57% 29.81 in 10.0 mi WNW 3.5 mph - N/A   Clear
7:53 PM 70.0 °F - 55.9 °F 61% 29.82 in 10.0 mi WNW 6.9 mph - N/A   Scattered Clouds
8:53 PM 66.9 °F - 57.0 °F 70% 29.83 in 10.0 mi WNW 3.5 mph - N/A   Clear
9:53 PM 66.9 °F - 57.0 °F 70% 29.82 in 10.0 mi NW 3.5 mph - N/A   Overcast
10:53 PM 64.9 °F - 57.0 °F 75% 29.81 in 10.0 mi NW 3.5 mph - N/A   Mostly Cloudy
11:53 PM 63.0 °F - 57.0 °F 81% 29.82 in 10.0 mi Calm Calm - N/A   Mostly Cloudy